CZ-2C R/B (46811 NORAD) Tracking and Keplerian Element Data

This shows tracking and keplerian element data for the satellite.

Feedback or suggestion? Click here.




ElementValue
Catalog46811
NameCZ-2C R/B
Epoch Orbit440
Epoch Day329.72074529
Epoch Year2020
RAAN60.8968
Inclination35.3332
Eccentricity0.0123483
Argument of Perigee314.2208
Mean Anonmoly44.8425
Mean Motion15.16400306
Decay Rate1.946E-05
L11 46811U 20076E 20329.72074529 .00001946 00000-0 82477-4 0 9999
L22 46811 35.3332 60.8968 0123483 314.2208 44.8425 15.16400306 4400

Live tracking and technical data element details for CZ-2C R/B (NORAD 46811). CZ-2C R/B can be tracked NOW for your location showing map with azimuth and elevation plus other details from your city location.

Track the satellite on the map from your city or location and see movement details for azimuth, elevation, latitude, longitude, range, height, and movement on the map or in text.







IsCatalogInMostPopularTable: catalog: 46811, numindb: 10
Update: records affected: 1



GetName: 46811 CZ-2C R/B

Hit Count: updated at: Fri, 27 Nov 2020 00:30:54 GMT